When you browse on this site, cookies collect data to enhance your experience and personalize the content and advertising you see.
Visit our Privacy Policy to learn more. By continuing to use the site, you agree to this use of cookies and data.
  • En España
  • Lista de países
  • Para 7 días
  • Temperatura del agua
  • El tiempo en el mapa
  • Informadores
  • user-avatar
    Iniciar sesión

    Tiempo cada hora Ohtyrka

    Hoy, 2 Abril, Jueves

    Tiempo Temperatura Precipitaciones Viento Presión Humedad
    00:00 -1°C° 0 mm 3 mps 750 mmHg 65%
    01:00 -1°C° 0 mm 3 mps 750 mmHg 66%
    02:00 -1°C° 0 mm 3 mps 750 mmHg 64%
    03:00 -1°C° 0 mm 3 mps 750 mmHg 65%
    04:00 -1°C° 0 mm 3 mps 750 mmHg 65%
    05:00 -1°C° 0 mm 3 mps 750 mmHg 66%
    06:00 -1°C° 0 mm 4 mps 750 mmHg 61%
    07:00 0°C° 0 mm 4 mps 750 mmHg 57%
    08:00 +3°C° 0 mm 4 mps 750 mmHg 52%
    09:00 +3°C° 0 mm 5 mps 750 mmHg 48%
    10:00 +5°C° 0 mm 5 mps 749 mmHg 45%
    11:00 +5°C° 0 mm 6 mps 749 mmHg 41%
    12:00 +7°C° 0 mm 6 mps 749 mmHg 40%
    13:00 +7°C° 0 mm 6 mps 749 mmHg 39%
    14:00 +8°C° 0 mm 6 mps 749 mmHg 39%
    15:00 +8°C° 0 mm 5 mps 749 mmHg 40%
    16:00 +8°C° 0 mm 5 mps 749 mmHg 41%
    17:00 +7°C° 0 mm 5 mps 748 mmHg 43%
    18:00 +6°C° 0 mm 4 mps 748 mmHg 47%
    19:00 +5°C° 0 mm 3 mps 749 mmHg 52%
    20:00 +5°C° 0 mm 2 mps 749 mmHg 57%
    21:00 +4°C° 0 mm 2 mps 749 mmHg 59%
    22:00 +3°C° 0 mm 3 mps 749 mmHg 60%
    23:00 +3°C° 0 mm 3 mps 749 mmHg 62%

    Mañana, 3 Abril, Viernes

    Tiempo Temperatura Precipitaciones Viento Presión Humedad
    00:00 +2°C° 0 mm 3 mps 749 mmHg 63%
    01:00 +2°C° 0 mm 3 mps 749 mmHg 64%
    02:00 +2°C° 0 mm 3 mps 749 mmHg 65%
    03:00 +1°C° 0 mm 3 mps 749 mmHg 65%
    04:00 +1°C° 0 mm 3 mps 749 mmHg 66%
    05:00 +1°C° 0 mm 3 mps 749 mmHg 67%
    06:00 +2°C° 0 mm 3 mps 749 mmHg 62%
    07:00 +4°C° 0 mm 4 mps 749 mmHg 57%
    08:00 +5°C° 0 mm 4 mps 749 mmHg 52%
    09:00 +7°C° 0 mm 5 mps 749 mmHg 46%
    10:00 +8°C° 0 mm 5 mps 749 mmHg 40%
    11:00 +10°C° 0 mm 6 mps 749 mmHg 34%
    12:00 +10°C° 0 mm 6 mps 749 mmHg 34%
    13:00 +11°C° 0 mm 6 mps 749 mmHg 33%
    14:00 +11°C° 0 mm 6 mps 749 mmHg 32%
    15:00 +11°C° 0 mm 6 mps 748 mmHg 33%
    16:00 +12°C° 0 mm 5 mps 748 mmHg 35%
    17:00 +10°C° 0 mm 5 mps 748 mmHg 37%
    18:00 +10°C° 0 mm 4 mps 748 mmHg 41%
    19:00 +8°C° 0 mm 4 mps 749 mmHg 45%
    20:00 +7°C° 0 mm 3 mps 749 mmHg 49%
    21:00 +6°C° 0 mm 4 mps 749 mmHg 50%
    22:00 +5°C° 0 mm 4 mps 749 mmHg 52%
    23:00 +5°C° 0 mm 4 mps 749 mmHg 53%

    Pasado mañana, 4 Abril, Sábado

    Tiempo Temperatura Precipitaciones Viento Presión Humedad
    00:00 +5°C° 0 mm 4 mps 750 mmHg 54%
    01:00 +4°C° 0 mm 4 mps 750 mmHg 55%
    02:00 +4°C° 0 mm 4 mps 750 mmHg 56%
    03:00 +3°C° 0 mm 4 mps 751 mmHg 60%
    04:00 +3°C° 0 mm 3 mps 751 mmHg 65%
    05:00 +2°C° 0 mm 3 mps 751 mmHg 69%
    06:00 +4°C° 0 mm 3 mps 752 mmHg 67%
    07:00 +5°C° 0 mm 3 mps 752 mmHg 64%
    08:00 +7°C° 0 mm 3 mps 753 mmHg 62%
    09:00 +8°C° 0 mm 4 mps 753 mmHg 55%
    10:00 +10°C° 0 mm 4 mps 754 mmHg 49%
    11:00 +10°C° 0 mm 5 mps 754 mmHg 42%
    12:00 +10°C° 0 mm 5 mps 754 mmHg 40%
    13:00 +10°C° 0 mm 5 mps 754 mmHg 38%
    14:00 +10°C° 0 mm 5 mps 754 mmHg 36%
    15:00 +10°C° 0 mm 5 mps 755 mmHg 35%
    16:00 +9°C° 0 mm 5 mps 755 mmHg 34%
    17:00 +9°C° 0 mm 5 mps 755 mmHg 33%
    18:00 +8°C° 0 mm 4 mps 756 mmHg 37%
    19:00 +7°C° 0 mm 3 mps 756 mmHg 40%
    20:00 +6°C° 0 mm 2 mps 757 mmHg 43%
    21:00 +5°C° 0 mm 2 mps 757 mmHg 44%
    22:00 +5°C° 0 mm 2 mps 758 mmHg 46%
    23:00 +4°C° 0 mm 2 mps 758 mmHg 47%

    5 Abril, Domingo

    Tiempo Temperatura Precipitaciones Viento Presión Humedad
    00:00 +4°C° 0 mm 2 mps 758 mmHg 49%
    01:00 +3°C° 0 mm 2 mps 758 mmHg 52%
    02:00 +3°C° 0 mm 2 mps 759 mmHg 54%
    03:00 +3°C° 0 mm 2 mps 759 mmHg 58%
    04:00 +1°C° 0 mm 3 mps 759 mmHg 63%
    05:00 +1°C° 0 mm 3 mps 759 mmHg 67%
    06:00 +1°C° 0 mm 4 mps 760 mmHg 63%
    07:00 +3°C° 0 mm 4 mps 760 mmHg 60%
    08:00 +3°C° 0 mm 5 mps 760 mmHg 56%
    09:00 +4°C° 0 mm 6 mps 761 mmHg 51%
    10:00 +5°C° 0 mm 7 mps 761 mmHg 46%
    11:00 +5°C° 0 mm 8 mps 761 mmHg 42%
    12:00 +6°C° 0 mm 8 mps 761 mmHg 38%
    13:00 +6°C° 0 mm 8 mps 762 mmHg 34%
    14:00 +6°C° 0 mm 9 mps 762 mmHg 31%
    15:00 +5°C° 0 mm 8 mps 762 mmHg 31%
    16:00 +5°C° 0 mm 8 mps 762 mmHg 31%
    17:00 +4°C° 0 mm 7 mps 763 mmHg 31%
    18:00 +3°C° 0 mm 6 mps 763 mmHg 34%
    19:00 +2°C° 0 mm 5 mps 764 mmHg 38%
    20:00 +1°C° 0 mm 4 mps 765 mmHg 42%
    21:00 +1°C° 0 mm 4 mps 765 mmHg 45%
    22:00 +1°C° 0 mm 3 mps 766 mmHg 47%
    23:00 +1°C° 0 mm 3 mps 766 mmHg 50%

    6 Abril, Lunes

    Tiempo Temperatura Precipitaciones Viento Presión Humedad
    00:00 0°C° 0 mm 3 mps 767 mmHg 52%
    01:00 0°C° 0 mm 3 mps 767 mmHg 54%
    02:00 -1°C° 0 mm 3 mps 767 mmHg 57%
    03:00 -1°C° 0 mm 2 mps 768 mmHg 57%
    04:00 -1°C° 0 mm 2 mps 768 mmHg 58%
    05:00 -1°C° 0 mm 2 mps 768 mmHg 59%
    06:00 +1°C° 0 mm 2 mps 768 mmHg 53%
    07:00 +2°C° 0 mm 3 mps 769 mmHg 47%
    08:00 +3°C° 0 mm 3 mps 769 mmHg 41%
    09:00 +5°C° 0 mm 3 mps 769 mmHg 38%
    10:00 +6°C° 0 mm 4 mps 769 mmHg 35%
    11:00 +7°C° 0 mm 4 mps 769 mmHg 32%
    12:00 +8°C° 0 mm 4 mps 769 mmHg 32%
    13:00 +10°C° 0 mm 4 mps 769 mmHg 32%
    14:00 +9°C° 0 mm 5 mps 768 mmHg 32%
    15:00 +9°C° 0 mm 5 mps 768 mmHg 34%
    16:00 +10°C° 0 mm 4 mps 768 mmHg 35%
    17:00 +10°C° 0 mm 4 mps 768 mmHg 37%
    18:00 +8°C° 0 mm 4 mps 768 mmHg 42%
    19:00 +7°C° 0 mm 3 mps 768 mmHg 46%
    20:00 +6°C° 0 mm 2 mps 768 mmHg 50%
    21:00 +6°C° 0 mm 2 mps 768 mmHg 52%
    22:00 +5°C° 0 mm 2 mps 768 mmHg 53%
    23:00 +5°C° 0 mm 2 mps 768 mmHg 55%

    7 Abril, Martes

    Tiempo Temperatura Precipitaciones Viento Presión Humedad
    00:00 +4°C° 0 mm 2 mps 768 mmHg 56%
    01:00 +4°C° 0 mm 2 mps 768 mmHg 56%
    02:00 +4°C° 0 mm 2 mps 768 mmHg 57%
    03:00 +3°C° 0 mm 2 mps 768 mmHg 58%
    04:00 +3°C° 0 mm 2 mps 768 mmHg 59%
    05:00 +3°C° 0 mm 2 mps 768 mmHg 59%
    06:00 +4°C° 0 mm 2 mps 768 mmHg 55%
    07:00 +6°C° 0 mm 2 mps 768 mmHg 50%
    08:00 +7°C° 0 mm 3 mps 768 mmHg 45%
    09:00 +9°C° 0 mm 3 mps 768 mmHg 40%
    10:00 +11°C° 0 mm 3 mps 768 mmHg 35%
    11:00 +12°C° 0 mm 4 mps 767 mmHg 30%
    12:00 +13°C° 0 mm 4 mps 767 mmHg 29%
    13:00 +14°C° 0 mm 4 mps 767 mmHg 29%
    14:00 +15°C° 0 mm 4 mps 766 mmHg 28%
    15:00 +14°C° 0 mm 4 mps 766 mmHg 30%
    16:00 +14°C° 0 mm 4 mps 765 mmHg 32%
    17:00 +14°C° 0 mm 4 mps 765 mmHg 34%
    18:00 +12°C° 0 mm 3 mps 765 mmHg 38%
    19:00 +11°C° 0 mm 3 mps 765 mmHg 42%
    20:00 +9°C° 0 mm 3 mps 765 mmHg 46%
    21:00 +9°C° 0 mm 3 mps 764 mmHg 48%
    22:00 +8°C° 0 mm 3 mps 764 mmHg 49%
    23:00 +7°C° 0 mm 3 mps 764 mmHg 51%
    Mostrar más